| time (UTC) | temp C | wind direction | speed KPH | gust KPH | rain 1hr cm | rain 24hr cm | rain mn cm | humidity % | barometer mb |
| 20260506180144 | 26 | 80 | 4.8 | 14.5 | 0.00 | 0.00 | 0.00 | 71 | 1010.7 |
| 20260506175617 | 25 | 117 | 3.2 | 14.5 | 0.00 | 0.00 | 0.00 | 72 | 1010.7 |
| 20260506175143 | 25 | 41 | 6.4 | 12.9 | 0.00 | 0.00 | 0.00 | 72 | 1010.8 |
| 20260506174620 | 25 | 76 | 3.2 | 14.5 | 0.00 | 0.00 | 0.00 | 73 | 1010.8 |
| 20260506174146 | 25 | 77 | 3.2 | 11.3 | 0.00 | 0.00 | 0.00 | 75 | 1010.9 |
| 20260506173617 | 23 | 76 | 1.6 | 14.5 | 0.00 | 0.00 | 0.00 | 75 | 1010.9 |
| 20260506173142 | 23 | 36 | 8.0 | 14.5 | 0.00 | 0.00 | 0.00 | 75 | 1010.9 |
| 20260506172716 | 23 | 52 | 6.4 | 14.5 | 0.00 | 0.00 | 0.00 | 76 | 1010.9 |
| 20260506172221 | 23 | 25 | 4.8 | 14.5 | 0.00 | 0.00 | 0.00 | 76 | 1011.0 |
| 20260506171733 | 22 | 37 | 4.8 | 14.5 | 0.00 | 0.00 | 0.00 | 76 | 1011.2 |
| 20260506171137 | 22 | 34 | 8.0 | 14.5 | 0.00 | 0.00 | 0.00 | 76 | 1011.3 |
| 20260506170650 | 22 | 51 | 6.4 | 17.7 | 0.00 | 0.00 | 0.00 | 75 | 1011.3 |
| 20260506170116 | 22 | 41 | 11.3 | 17.7 | 0.00 | 0.00 | 0.00 | 76 | 1011.4 |
| 20260506165642 | 23 | 49 | 11.3 | 19.3 | 0.00 | 0.00 | 0.00 | 75 | 1011.4 |
| 20260506165155 | 23 | 46 | 8.0 | 19.3 | 0.00 | 0.00 | 0.00 | 75 | 1011.4 |
| 20260506164620 | 23 | 38 | 8.0 | 22.5 | 0.00 | 0.00 | 0.00 | 75 | 1011.4 |
| 20260506164153 | 25 | 32 | 16.1 | 22.5 | 0.00 | 0.00 | 0.00 | 74 | 1011.4 |
| 20260506163620 | 25 | 98 | 4.8 | 11.3 | 0.00 | 0.00 | 0.00 | 78 | 1011.1 |
| 20260506163151 | 25 | 93 | 6.4 | 16.1 | 0.00 | 0.00 | 0.00 | 78 | 1011.1 |
| 20260506162716 | 25 | 76 | 8.0 | 16.1 | 0.00 | 0.00 | 0.00 | 78 | 1011.1 |
| 20260506162229 | 25 | 80 | 8.0 | 14.5 | 0.00 | 0.00 | 0.00 | 78 | 1011.1 |
| 20260506161634 | 25 | 42 | 9.7 | 12.9 | 0.00 | 0.00 | 0.00 | 79 | 1011.1 |
| 20260506161140 | 25 | 40 | 8.0 | 14.5 | 0.00 | 0.00 | 0.00 | 79 | 1011.1 |
| 20260506160652 | 25 | 78 | 6.4 | 14.5 | 0.00 | 0.00 | 0.00 | 80 | 1011.0 |
| 20260506160117 | 25 | 112 | 6.4 | 14.5 | 0.00 | 0.00 | 0.00 | 81 | 1011.0 |
| 20260506155651 | 25 | 103 | 4.8 | 11.3 | 0.00 | 0.00 | 0.00 | 81 | 1011.0 |
| 20260506155116 | 25 | 53 | 6.4 | 11.3 | 0.00 | 0.00 | 0.00 | 82 | 1011.0 |
| 20260506154650 | 24 | 95 | 6.4 | 11.3 | 0.00 | 0.00 | 0.00 | 83 | 1011.0 |
| 20260506154120 | 24 | 86 | 3.2 | 8.0 | 0.00 | 0.00 | 0.00 | 83 | 1011.0 |
| 20260506153645 | 24 | 51 | 3.2 | 8.0 | 0.00 | 0.00 | 0.00 | 84 | 1010.9 |
| 20260506153118 | 24 | 104 | 3.2 | 6.4 | 0.00 | 0.00 | 0.00 | 85 | 1010.8 |
| 20260506152643 | 24 | 88 | 3.2 | 6.4 | 0.00 | 0.00 | 0.00 | 85 | 1010.8 |
| 20260506152115 | 24 | 130 | 0.0 | 8.0 | 0.00 | 0.00 | 0.00 | 86 | 1010.5 |
| 20260506151642 | 23 | 142 | 3.2 | 8.0 | 0.00 | 0.00 | 0.00 | 86 | 1010.4 |
| 20260506151154 | 23 | 123 | 0.0 | 6.4 | 0.00 | 0.00 | 0.00 | 86 | 1010.4 |
| 20260506150620 | 23 | 123 | 1.6 | 6.4 | 0.00 | 0.00 | 0.00 | 86 | 1010.2 |
| 20260506150154 | 23 | 154 | 3.2 | 6.4 | 0.00 | 0.00 | 0.00 | 87 | 1010.2 |
| 20260506145618 | 23 | 138 | 0.0 | 6.4 | 0.00 | 0.00 | 0.00 | 87 | 1010.2 |
| 20260506145144 | 23 | 165 | 1.6 | 6.4 | 0.00 | 0.00 | 0.00 | 87 | 1010.2 |
| 20260506144654 | 23 | 135 | 3.2 | 6.4 | 0.00 | 0.00 | 0.00 | 87 | 1010.1 |
| 20260506144218 | 23 | 146 | 3.2 | 6.4 | 0.00 | 0.00 | 0.00 | 87 | 1010.0 |
| 20260506143708 | 23 | 148 | 1.6 | 3.2 | 0.00 | 0.00 | 0.00 | 87 | 1010.1 |
| 20260506143133 | 23 | 116 | 1.6 | 3.2 | 0.00 | 0.00 | 0.00 | 87 | 1010.2 |
| 20260506142707 | 23 | 129 | 1.6 | 3.2 | 0.00 | 0.00 | 0.00 | 87 | 1010.3 |
| 20260506142232 | 23 | 128 | 0.0 | 1.6 | 0.00 | 0.00 | 0.00 | 87 | 1010.3 |
| 20260506141643 | 23 | 129 | 0.0 | 6.4 | 0.00 | 0.00 | 0.00 | 87 | 1010.2 |
| 20260506141206 | 23 | 128 | 1.6 | 6.4 | 0.00 | 0.00 | 0.00 | 87 | 1010.3 |
| 20260506140639 | 23 | 88 | 3.2 | 8.0 | 0.00 | 0.00 | 0.00 | 87 | 1010.1 |
| 20260506140146 | 23 | 117 | 3.2 | 8.0 | 0.00 | 0.00 | 0.00 | 87 | 1009.8 |
| 20260506135615 | 23 | 113 | 1.6 | 8.0 | 0.00 | 0.00 | 0.00 | 87 | 1009.7 |
| 20260506135149 | 23 | 112 | 3.2 | 9.7 | 0.00 | 0.00 | 0.00 | 87 | 1009.4 |
| 20260506134615 | 23 | 115 | 4.8 | 9.7 | 0.00 | 0.00 | 0.00 | 87 | 1009.2 |
| 20260506134142 | 23 | 121 | 3.2 | 9.7 | 0.00 | 0.00 | 0.00 | 87 | 1009.1 |
| 20260506133634 | 23 | 118 | 4.8 | 9.7 | 0.00 | 0.00 | 0.00 | 87 | 1009.0 |
| 20260506133157 | 23 | 148 | 3.2 | 11.3 | 0.00 | 0.00 | 0.00 | 87 | 1008.9 |
| 20260506132710 | 23 | 146 | 4.8 | 11.3 | 0.00 | 0.00 | 0.00 | 87 | 1008.8 |
| 20260506132132 | 23 | 128 | 3.2 | 8.0 | 0.00 | 0.00 | 0.00 | 87 | 1008.8 |
| 20260506131137 | 23 | 128 | 6.4 | 11.3 | 0.00 | 0.00 | 0.00 | 87 | 1008.8 |
| 20260506130704 | 23 | 115 | 4.8 | 9.7 | 0.00 | 0.00 | 0.00 | 87 | 1008.8 |
| 20260506130139 | 23 | 90 | 3.2 | 9.7 | 0.00 | 0.00 | 0.00 | 87 | 1008.7 |
| 20260506125708 | 23 | 93 | 3.2 | 9.7 | 0.00 | 0.00 | 0.00 | 87 | 1008.7 |
| 20260506125138 | 23 | 131 | 6.4 | 9.7 | 0.00 | 0.00 | 0.00 | 87 | 1008.5 |
| 20260506124703 | 23 | 146 | 4.8 | 11.3 | 0.00 | 0.00 | 0.00 | 87 | 1008.5 |
| 20260506124134 | 23 | 111 | 6.4 | 12.9 | 0.00 | 0.00 | 0.00 | 87 | 1008.5 |
| 20260506123701 | 23 | 109 | 4.8 | 11.3 | 0.00 | 0.00 | 0.00 | 87 | 1008.5 |
| 20260506123124 | 23 | 122 | 4.8 | 8.0 | 0.00 | 0.00 | 0.00 | 87 | 1008.5 |
| 20260506122656 | 23 | 134 | 4.8 | 9.7 | 0.00 | 0.00 | 0.00 | 87 | 1008.5 |
| 20260506122158 | 23 | 135 | 6.4 | 9.7 | 0.00 | 0.00 | 0.00 | 87 | 1008.5 |
| 20260506121630 | 23 | 122 | 6.4 | 8.0 | 0.00 | 0.00 | 0.00 | 87 | 1008.4 |
| 20260506121154 | 23 | 142 | 3.2 | 6.4 | 0.00 | 0.00 | 0.00 | 87 | 1008.5 |
| 20260506120631 | 23 | 157 | 3.2 | 4.8 | 0.00 | 0.00 | 0.00 | 87 | 1008.5 |
| 20260506120157 | 23 | 144 | 3.2 | 8.0 | 0.00 | 0.00 | 0.00 | 87 | 1008.5 |
| 20260506115711 | 23 | 145 | 3.2 | 8.0 | 0.00 | 0.00 | 0.00 | 87 | 1008.5 |
| 20260506115137 | 23 | 167 | 3.2 | 4.8 | 0.00 | 0.00 | 0.00 | 87 | 1008.5 |
| 20260506114711 | 23 | 141 | 1.6 | 6.4 | 0.00 | 0.00 | 0.00 | 87 | 1008.4 |
| 20260506114135 | 23 | 140 | 1.6 | 6.4 | 0.00 | 0.00 | 0.00 | 86 | 1008.5 |
| 20260506113700 | 23 | 204 | 0.0 | 0.0 | 0.00 | 0.00 | 0.00 | 86 | 1008.5 |
| 20260506113130 | 23 | 205 | 0.0 | 0.0 | 0.00 | 0.00 | 0.00 | 86 | 1008.5 |
| 20260506112655 | 23 | 204 | 0.0 | 0.0 | 0.00 | 0.00 | 0.00 | 86 | 1008.5 |
| 20260506112133 | 23 | 204 | 0.0 | 0.0 | 0.00 | 0.00 | 0.00 | 86 | 1008.5 |
| 20260506111650 | 23 | 205 | 0.0 | 0.0 | 0.00 | 0.00 | 0.00 | 86 | 1008.5 |
| 20260506111140 | 23 | 205 | 0.0 | 0.0 | 0.00 | 0.00 | 0.00 | 86 | 1008.5 |
| 20260506110706 | 23 | 204 | 0.0 | 0.0 | 0.00 | 0.00 | 0.00 | 86 | 1008.5 |
| 20260506110139 | 23 | 205 | 0.0 | 3.2 | 0.00 | 0.00 | 0.00 | 86 | 1008.5 |
| 20260506105645 | 23 | 175 | 0.0 | 3.2 | 0.00 | 0.00 | 0.00 | 86 | 1008.5 |
| 20260506105205 | 23 | 175 | 1.6 | 3.2 | 0.00 | 0.00 | 0.00 | 86 | 1008.5 |
| 20260506104617 | 23 | 195 | 1.6 | 8.0 | 0.00 | 0.00 | 0.00 | 86 | 1008.3 |
| 20260506104122 | 23 | 160 | 1.6 | 8.0 | 0.00 | 0.00 | 0.00 | 86 | 1008.3 |
| 20260506103652 | 23 | 151 | 3.2 | 8.0 | 0.00 | 0.00 | 0.00 | 86 | 1008.2 |
| 20260506103156 | 23 | 196 | 4.8 | 12.9 | 0.00 | 0.00 | 0.00 | 86 | 1008.2 |
| 20260506102621 | 23 | 182 | 4.8 | 11.3 | 0.00 | 0.00 | 0.00 | 86 | 1008.2 |
| 20260506102155 | 23 | 182 | 4.8 | 11.3 | 0.00 | 0.00 | 0.00 | 86 | 1008.3 |
| 20260506101624 | 23 | 188 | 6.4 | 14.5 | 0.00 | 0.00 | 0.00 | 86 | 1008.3 |
| 20260506101159 | 23 | 182 | 8.0 | 16.1 | 0.00 | 0.00 | 0.00 | 86 | 1008.3 |
| 20260506100703 | 23 | 173 | 9.7 | 16.1 | 0.00 | 0.00 | 0.00 | 86 | 1008.3 |
| 20260506100124 | 23 | 204 | 8.0 | 16.1 | 0.00 | 0.00 | 0.00 | 85 | 1008.2 |
| 20260506095650 | 23 | 196 | 9.7 | 16.1 | 0.00 | 0.00 | 0.00 | 85 | 1008.2 |
| 20260506095140 | 23 | 216 | 4.8 | 17.7 | 0.00 | 0.00 | 0.00 | 85 | 1008.2 |
| 20260506094706 | 23 | 223 | 8.0 | 17.7 | 0.00 | 0.00 | 0.00 | 85 | 1008.1 |
| 20260506094131 | 23 | 186 | 9.7 | 16.1 | 0.00 | 0.00 | 0.00 | 85 | 1008.2 |
| 20260506093704 | 23 | 165 | 8.0 | 16.1 | 0.00 | 0.00 | 0.00 | 85 | 1008.1 |
| 20260506093128 | 23 | 194 | 6.4 | 16.1 | 0.00 | 0.00 | 0.00 | 85 | 1008.1 |
| 20260506092701 | 23 | 212 | 6.4 | 14.5 | 0.00 | 0.00 | 0.00 | 85 | 1008.2 |
| 20260506092128 | 23 | 198 | 6.4 | 12.9 | 0.00 | 0.00 | 0.00 | 85 | 1008.1 |
| 20260506091701 | 23 | 187 | 4.8 | 16.1 | 0.00 | 0.00 | 0.00 | 85 | 1008.0 |
| 20260506091229 | 23 | 186 | 9.7 | 16.1 | 0.00 | 0.00 | 0.00 | 85 | 1008.0 |
| 20260506090641 | 23 | 165 | 9.7 | 17.7 | 0.00 | 0.00 | 0.00 | 85 | 1008.0 |
| 20260506090126 | 23 | 196 | 11.3 | 17.7 | 0.00 | 0.00 | 0.00 | 85 | 1008.0 |
| 20260506085651 | 23 | 146 | 8.0 | 14.5 | 0.00 | 0.00 | 0.00 | 85 | 1008.0 |
| 20260506085225 | 23 | 161 | 6.4 | 12.9 | 0.00 | 0.00 | 0.00 | 85 | 1007.9 |
| 20260506084629 | 23 | 175 | 4.8 | 12.9 | 0.00 | 0.00 | 0.00 | 85 | 1008.0 |
| 20260506084155 | 23 | 157 | 8.0 | 17.7 | 0.00 | 0.00 | 0.00 | 85 | 1007.9 |
| 20260506083643 | 23 | 175 | 11.3 | 24.1 | 0.00 | 0.00 | 0.00 | 85 | 1007.9 |
| 20260506083205 | 23 | 158 | 12.9 | 24.1 | 0.00 | 0.00 | 0.00 | 85 | 1007.9 |
| 20260506082631 | 23 | 168 | 9.7 | 22.5 | 0.00 | 0.00 | 0.00 | 85 | 1007.8 |
| 20260506082204 | 23 | 205 | 11.3 | 22.5 | 0.00 | 0.00 | 0.00 | 85 | 1007.8 |
| 20260506081630 | 23 | 177 | 9.7 | 20.9 | 0.00 | 0.00 | 0.00 | 85 | 1007.9 |
| 20260506081202 | 23 | 137 | 6.4 | 20.9 | 0.00 | 0.00 | 0.00 | 85 | 1008.0 |
| 20260506080629 | 23 | 161 | 12.9 | 22.5 | 0.00 | 0.00 | 0.00 | 85 | 1008.0 |
| 20260506080201 | 23 | 174 | 12.9 | 22.5 | 0.00 | 0.00 | 0.00 | 85 | 1008.0 |
| 20260506073145 | 23 | 160 | 9.7 | 19.3 | 0.00 | 0.00 | 0.00 | 85 | 1008.2 |
| 20260506072614 | 23 | 142 | 11.3 | 17.7 | 0.00 | 0.00 | 0.00 | 85 | 1008.2 |
| 20260506072145 | 23 | 167 | 8.0 | 17.7 | 0.00 | 0.00 | 0.00 | 85 | 1008.3 |
| 20260506071712 | 23 | 198 | 6.4 | 17.7 | 0.00 | 0.00 | 0.00 | 85 | 1008.4 |
| 20260506071116 | 23 | 171 | 9.7 | 14.5 | 0.00 | 0.00 | 0.00 | 85 | 1008.4 |
| 20260506070651 | 23 | 169 | 8.0 | 17.7 | 0.00 | 0.00 | 0.00 | 85 | 1008.5 |
| 20260506070117 | 23 | 149 | 8.0 | 17.7 | 0.00 | 0.00 | 0.00 | 85 | 1008.6 |
| 20260506062131 | 23 | 157 | 11.3 | 24.1 | 0.00 | 0.00 | 0.00 | 84 | 1008.6 |
| 20260506061629 | 23 | 147 | 9.7 | 14.5 | 0.00 | 0.00 | 0.00 | 84 | 1008.7 |
| 20260506061132 | 24 | 167 | 8.0 | 16.1 | 0.00 | 0.00 | 0.00 | 84 | 1008.6 |
| 20260506060638 | 24 | 169 | 9.7 | 20.9 | 0.00 | 0.00 | 0.00 | 84 | 1008.6 |
| 20260506060132 | 24 | 155 | 9.7 | 20.9 | 0.00 | 0.00 | 0.00 | 84 | 1008.7 |
| 20260506051128 | 24 | 167 | 6.4 | 17.7 | 0.00 | 0.00 | 0.00 | 83 | 1008.5 |
| 20260506050649 | 24 | 151 | 9.7 | 17.7 | 0.00 | 0.00 | 0.00 | 83 | 1008.5 |
| 20260506045117 | 25 | 148 | 9.7 | 16.1 | 0.00 | 0.00 | 0.00 | 83 | 1008.5 |
| 20260506044651 | 25 | 131 | 8.0 | 16.1 | 0.00 | 0.00 | 0.00 | 83 | 1008.5 |
| 20260506044134 | 25 | 136 | 11.3 | 17.7 | 0.00 | 0.00 | 0.00 | 83 | 1008.4 |
| 20260506043645 | 25 | 140 | 11.3 | 17.7 | 0.00 | 0.00 | 0.00 | 83 | 1008.4 |
| 20260506043113 | 25 | 186 | 8.0 | 17.7 | 0.00 | 0.00 | 0.00 | 83 | 1008.5 |
| 20260506042644 | 25 | 164 | 8.0 | 19.3 | 0.00 | 0.00 | 0.00 | 82 | 1008.5 |
| 20260506042210 | 25 | 134 | 9.7 | 19.3 | 0.00 | 0.00 | 0.00 | 82 | 1008.3 |
| 20260506041642 | 25 | 140 | 9.7 | 16.1 | 0.00 | 0.00 | 0.00 | 82 | 1008.3 |
| 20260506041208 | 25 | 170 | 9.7 | 19.3 | 0.00 | 0.00 | 0.00 | 82 | 1008.3 |
| 20260506040638 | 25 | 139 | 11.3 | 19.3 | 0.00 | 0.00 | 0.00 | 82 | 1008.3 |
| 20260506040203 | 25 | 146 | 11.3 | 17.7 | 0.00 | 0.00 | 0.00 | 82 | 1008.1 |
| 20260506035628 | 25 | 151 | 6.4 | 14.5 | 0.00 | 0.00 | 0.00 | 82 | 1008.1 |
| 20260506035159 | 25 | 128 | 4.8 | 9.7 | 0.00 | 0.00 | 0.00 | 81 | 1008.1 |
| 20260506034628 | 25 | 125 | 4.8 | 9.7 | 0.00 | 0.00 | 0.00 | 81 | 1008.0 |
| 20260506034158 | 25 | 126 | 4.8 | 9.7 | 0.00 | 0.00 | 0.00 | 81 | 1007.9 |
| 20260506033624 | 25 | 159 | 4.8 | 9.7 | 0.00 | 0.00 | 0.00 | 81 | 1007.8 |
| 20260506033158 | 25 | 145 | 4.8 | 9.7 | 0.00 | 0.00 | 0.00 | 81 | 1007.9 |
| 20260506032623 | 25 | 140 | 6.4 | 9.7 | 0.00 | 0.00 | 0.00 | 80 | 1007.8 |
| 20260506032135 | 25 | 129 | 4.8 | 12.9 | 0.00 | 0.00 | 0.00 | 80 | 1007.7 |
| 20260506031701 | 25 | 115 | 4.8 | 12.9 | 0.00 | 0.00 | 0.00 | 80 | 1007.5 |
| 20260506031134 | 25 | 159 | 6.4 | 11.3 | 0.00 | 0.00 | 0.00 | 79 | 1007.5 |
| 20260506030618 | 25 | 158 | 6.4 | 11.3 | 0.00 | 0.00 | 0.00 | 79 | 1007.4 |
| 20260506030143 | 25 | 120 | 6.4 | 9.7 | 0.00 | 0.00 | 0.00 | 78 | 1007.3 |
| 20260506025621 | 25 | 142 | 6.4 | 11.3 | 0.00 | 0.00 | 0.00 | 78 | 1007.1 |
| 20260506025145 | 25 | 134 | 6.4 | 11.3 | 0.00 | 0.00 | 0.00 | 78 | 1007.0 |
| 20260506024658 | 25 | 150 | 6.4 | 9.7 | 0.00 | 0.00 | 0.00 | 77 | 1007.0 |
| 20260506024123 | 25 | 154 | 3.2 | 8.0 | 0.00 | 0.00 | 0.00 | 77 | 1007.0 |
| 20260506023656 | 25 | 142 | 4.8 | 8.0 | 0.00 | 0.00 | 0.00 | 76 | 1006.9 |
| 20260506023121 | 25 | 128 | 1.6 | 6.4 | 0.00 | 0.00 | 0.00 | 76 | 1007.0 |
| 20260506022655 | 26 | 147 | 3.2 | 6.4 | 0.00 | 0.00 | 0.00 | 76 | 1006.9 |
| 20260506022221 | 26 | 144 | 1.6 | 8.0 | 0.00 | 0.00 | 0.00 | 75 | 1006.8 |
| 20260506021630 | 26 | 154 | 3.2 | 8.0 | 0.00 | 0.00 | 0.00 | 75 | 1006.7 |
| 20260506021157 | 26 | 129 | 3.2 | 8.0 | 0.00 | 0.00 | 0.00 | 75 | 1006.6 |
| 20260506020622 | 26 | 140 | 1.6 | 6.4 | 0.00 | 0.00 | 0.00 | 74 | 1006.5 |
| 20260506020155 | 26 | 140 | 3.2 | 6.4 | 0.00 | 0.00 | 0.00 | 74 | 1006.5 |
| 20260506015622 | 26 | 140 | 1.6 | 6.4 | 0.00 | 0.00 | 0.00 | 73 | 1006.4 |
| 20260506015156 | 26 | 140 | 3.2 | 4.8 | 0.00 | 0.00 | 0.00 | 73 | 1006.3 |
| 20260506014616 | 26 | 132 | 1.6 | 6.4 | 0.00 | 0.00 | 0.00 | 72 | 1006.2 |
| 20260506014150 | 26 | 128 | 3.2 | 6.4 | 0.00 | 0.00 | 0.00 | 72 | 1006.0 |
| 20260506013654 | 27 | 130 | 3.2 | 8.0 | 0.00 | 0.00 | 0.00 | 71 | 1006.0 |
| 20260506013124 | 27 | 139 | 3.2 | 8.0 | 0.00 | 0.00 | 0.00 | 70 | 1005.9 |
| 20260506012649 | 27 | 142 | 3.2 | 4.8 | 0.00 | 0.00 | 0.00 | 70 | 1005.9 |
| 20260506012222 | 27 | 137 | 3.2 | 8.0 | 0.00 | 0.00 | 0.00 | 69 | 1005.9 |
| 20260506011729 | 27 | 137 | 3.2 | 8.0 | 0.00 | 0.00 | 0.00 | 69 | 1005.9 |
| 20260506011139 | 27 | 134 | 3.2 | 8.0 | 0.00 | 0.00 | 0.00 | 68 | 1005.8 |
| 20260506010704 | 27 | 132 | 3.2 | 6.4 | 0.00 | 0.00 | 0.00 | 67 | 1005.8 |
| 20260506010140 | 28 | 127 | 3.2 | 6.4 | 0.00 | 0.00 | 0.00 | 66 | 1005.8 |
| 20260506005707 | 28 | 141 | 1.6 | 4.8 | 0.00 | 0.00 | 0.00 | 66 | 1005.8 |
| 20260506005133 | 28 | 142 | 1.6 | 3.2 | 0.00 | 0.00 | 0.00 | 65 | 1005.9 |
| 20260506004706 | 28 | 141 | 1.6 | 6.4 | 0.00 | 0.00 | 0.00 | 65 | 1005.8 |
| 20260506004130 | 28 | 142 | 1.6 | 6.4 | 0.00 | 0.00 | 0.00 | 64 | 1005.8 |
| 20260506003705 | 28 | 141 | 3.2 | 3.2 | 0.00 | 0.00 | 0.00 | 64 | 1005.7 |
| 20260506003130 | 28 | 142 | 1.6 | 6.4 | 0.00 | 0.00 | 0.00 | 63 | 1005.8 |
| 20260506002704 | 28 | 142 | 1.6 | 6.4 | 0.00 | 0.00 | 0.00 | 62 | 1005.8 |
| 20260506002134 | 28 | 205 | 1.6 | 6.4 | 0.00 | 0.00 | 0.00 | 62 | 1005.9 |
| 20260506001139 | 28 | 176 | 3.2 | 9.7 | 0.00 | 0.00 | 0.00 | 62 | 1005.8 |
| 20260506000703 | 28 | 197 | 4.8 | 8.0 | 0.00 | 0.00 | 0.00 | 62 | 1005.7 |
| 20260506000136 | 28 | 205 | 1.6 | 9.7 | 0.00 | 0.00 | 0.00 | 62 | 1005.7 |
| 20260505235701 | 28 | 211 | 6.4 | 9.7 | 0.00 | 0.00 | 0.00 | 61 | 1005.6 |
| 20260505235212 | 28 | 212 | 4.8 | 9.7 | 0.00 | 0.00 | 0.00 | 61 | 1005.7 |
| 20260505234648 | 28 | 237 | 6.4 | 12.9 | 0.00 | 0.00 | 0.00 | 61 | 1005.8 |
| 20260505234219 | 28 | 213 | 6.4 | 12.9 | 0.00 | 0.00 | 0.00 | 61 | 1005.7 |
| 20260505233619 | 28 | 201 | 4.8 | 9.7 | 0.00 | 0.00 | 0.00 | 62 | 1005.7 |
| 20260505233154 | 28 | 224 | 4.8 | 11.3 | 0.00 | 0.00 | 0.00 | 62 | 1005.7 |
| 20260505232614 | 28 | 221 | 8.0 | 11.3 | 0.00 | 0.00 | 0.00 | 61 | 1005.6 |
| 20260505232139 | 28 | 149 | 4.8 | 11.3 | 0.00 | 0.00 | 0.00 | 61 | 1005.6 |
| 20260505231615 | 28 | 189 | 3.2 | 14.5 | 0.00 | 0.00 | 0.00 | 61 | 1005.6 |
| 20260505231135 | 28 | 221 | 9.7 | 14.5 | 0.00 | 0.00 | 0.00 | 60 | 1005.6 |
| 20260505230706 | 28 | 168 | 4.8 | 17.7 | 0.00 | 0.00 | 0.00 | 60 | 1005.6 |
| 20260505230128 | 29 | 209 | 6.4 | 16.1 | 0.00 | 0.00 | 0.00 | 61 | 1005.7 |
| 20260505225630 | 29 | 166 | 4.8 | 12.9 | 0.00 | 0.00 | 0.00 | 61 | 1005.7 |
| 20260505225201 | 28 | 139 | 6.4 | 12.9 | 0.00 | 0.00 | 0.00 | 61 | 1005.5 |
| 20260505224703 | 29 | 194 | 8.0 | 16.1 | 0.00 | 0.00 | 0.00 | 60 | 1005.5 |
| 20260505224135 | 29 | 235 | 6.4 | 16.1 | 0.00 | 0.00 | 0.00 | 61 | 1005.4 |
| 20260505223701 | 29 | 179 | 8.0 | 16.1 | 0.00 | 0.00 | 0.00 | 60 | 1005.4 |
| 20260505223132 | 29 | 167 | 8.0 | 16.1 | 0.00 | 0.00 | 0.00 | 60 | 1005.4 |
| 20260505222656 | 29 | 183 | 8.0 | 19.3 | 0.00 | 0.00 | 0.00 | 61 | 1005.4 |
| 20260505222142 | 28 | 219 | 8.0 | 19.3 | 0.00 | 0.00 | 0.00 | 60 | 1005.6 |
| 20260505221706 | 28 | 175 | 9.7 | 17.7 | 0.00 | 0.00 | 0.00 | 59 | 1005.6 |
| 20260505221203 | 29 | 188 | 9.7 | 17.7 | 0.00 | 0.00 | 0.00 | 59 | 1005.6 |
| 20260505220116 | 29 | 148 | 8.0 | 20.9 | 0.00 | 0.00 | 0.00 | 59 | 1005.5 |
| 20260505215640 | 29 | 182 | 9.7 | 20.9 | 0.00 | 0.00 | 0.00 | 59 | 1005.6 |
| 20260505215205 | 29 | 216 | 4.8 | 20.9 | 0.00 | 0.00 | 0.00 | 60 | 1005.5 |
| 20260505214704 | 29 | 184 | 9.7 | 20.9 | 0.00 | 0.00 | 0.00 | 60 | 1005.7 |
| 20260505214115 | 29 | 208 | 8.0 | 17.7 | 0.00 | 0.00 | 0.00 | 61 | 1005.7 |
| 20260505213628 | 29 | 150 | 9.7 | 19.3 | 0.00 | 0.00 | 0.00 | 60 | 1005.7 |
| 20260505212706 | 28 | 198 | 9.7 | 19.3 | 0.00 | 0.00 | 0.00 | 61 | 1006.2 |
| 20260505211615 | 28 | 173 | 8.0 | 20.9 | 0.00 | 0.00 | 0.00 | 62 | 1006.2 |
| 20260505210625 | 28 | 150 | 8.0 | 17.7 | 0.00 | 0.00 | 0.00 | 62 | 1006.2 |
| 20260505205659 | 28 | 180 | 9.7 | 17.7 | 0.00 | 0.00 | 0.00 | 62 | 1006.6 |
| 20260505204627 | 28 | 183 | 11.3 | 20.9 | 0.00 | 0.00 | 0.00 | 61 | 1006.6 |
| 20260505204119 | 28 | 169 | 11.3 | 17.7 | 0.00 | 0.00 | 0.00 | 62 | 1006.7 |
| 20260505203225 | 28 | 186 | 12.9 | 22.5 | 0.00 | 0.00 | 0.00 | 62 | 1006.9 |
| 20260505202157 | 28 | 201 | 11.3 | 20.9 | 0.00 | 0.00 | 0.00 | 62 | 1007.0 |
| 20260505201628 | 28 | 217 | 8.0 | 16.1 | 0.00 | 0.00 | 0.00 | 63 | 1007.1 |
| 20260505201158 | 28 | 194 | 8.0 | 12.9 | 0.00 | 0.00 | 0.00 | 64 | 1007.1 |
| 20260505200623 | 27 | 218 | 1.6 | 19.3 | 0.00 | 0.00 | 0.00 | 64 | 1007.2 |
| 20260505200136 | 27 | 192 | 11.3 | 22.5 | 0.00 | 0.00 | 0.00 | 64 | 1007.4 |
| 20260505195702 | 27 | 169 | 11.3 | 22.5 | 0.00 | 0.00 | 0.00 | 64 | 1007.4 |
| 20260505195135 | 27 | 207 | 9.7 | 16.1 | 0.00 | 0.00 | 0.00 | 64 | 1007.4 |
| 20260505194700 | 27 | 165 | 8.0 | 19.3 | 0.00 | 0.00 | 0.00 | 65 | 1007.5 |
| 20260505194126 | 27 | 240 | 11.3 | 19.3 | 0.00 | 0.00 | 0.00 | 64 | 1007.4 |
| 20260505193657 | 27 | 222 | 12.9 | 20.9 | 0.00 | 0.00 | 0.00 | 66 | 1007.5 |
| 20260505193202 | 27 | 171 | 9.7 | 22.5 | 0.00 | 0.00 | 0.00 | 65 | 1007.5 |
| 20260505192638 | 27 | 172 | 12.9 | 22.5 | 0.00 | 0.00 | 0.00 | 67 | 1007.7 |
| 20260505191644 | 26 | 191 | 9.7 | 16.1 | 0.00 | 0.00 | 0.00 | 67 | 1007.7 |
| 20260505191149 | 26 | 236 | 4.8 | 17.7 | 0.00 | 0.00 | 0.00 | 68 | 1007.9 |
| 20260505190622 | 26 | 229 | 9.7 | 17.7 | 0.00 | 0.00 | 0.00 | 68 | 1007.9 |
| 20260505190147 | 26 | 210 | 9.7 | 16.1 | 0.00 | 0.00 | 0.00 | 68 | 1007.9 |
| 20260505185620 | 26 | 160 | 11.3 | 17.7 | 0.00 | 0.00 | 0.00 | 68 | 1007.9 |
| 20260505185147 | 26 | 167 | 9.7 | 17.7 | 0.00 | 0.00 | 0.00 | 68 | 1008.0 |
| 20260505184658 | 26 | 178 | 6.4 | 17.7 | 0.00 | 0.00 | 0.00 | 70 | 1008.2 |
| 20260505184123 | 26 | 215 | 9.7 | 17.7 | 0.00 | 0.00 | 0.00 | 72 | 1008.2 |
| 20260505183656 | 26 | 221 | 6.4 | 14.5 | 0.00 | 0.00 | 0.00 | 70 | 1008.3 |
| 20260505183126 | 26 | 227 | 8.0 | 14.5 | 0.00 | 0.00 | 0.00 | 70 | 1008.4 |
| 20260505182658 | 26 | 250 | 9.7 | 16.1 | 0.00 | 0.00 | 0.00 | 71 | 1008.4 |
| 20260505182123 | 26 | 225 | 9.7 | 16.1 | 0.00 | 0.00 | 0.00 | 71 | 1008.5 |
| 20260505181645 | 25 | 174 | 9.7 | 16.1 | 0.00 | 0.00 | 0.00 | 73 | 1008.6 |
| 20260505181157 | 25 | 186 | 8.0 | 16.1 | 0.00 | 0.00 | 0.00 | 73 | 1008.6 |
| 20260505180622 | 25 | 207 | 8.0 | 17.7 | 0.00 | 0.00 | 0.00 | 72 | 1008.6 |